Theta_e
340 339 341 341 342 340 332 333 334 336 335 333 332 333 333 334 334 334 341 341 339 338 334 335 337 337 337 329 327 329 330 330 330 335 336 334 331 331 332 331 331 331 335 334 334 336 335 335 336
337 337 340 341 337 331 332 331 335 335 335 335 335 335 335 336 339 341 342 342 340 337 337 337 336 333 334 336 330 329 332 334 333 335 336 335 334 332 332 331 329 326 325 322 333 334 331 332 332
337 336 338 337 338 332 332 332 334 336 338 338 338 337 335 335 335 338 339 340 340 339 340 339 336 333 333 335 334 334 333 335 337 336 335 335 333 330 327 325 324 323 321 321 320 323 330 330 329
337 337 338 338 341 339 329 334 335 337 337 337 338 337 338 339 340 340 342 341 340 336 335 336 336 332 335 335 334 331 330 333 335 334 334 333 328 326 323 318 317 314 310 310 313 316 323 329 329
335 337 340 343 340 340 337 337 336 337 337 336 336 338 339 339 341 342 336 334 333 333 328 337 333 332 333 336 333 330 328 332 335 334 331 327 327 325 320 319 319 318 315 312 311 312 313 317 322
335 335 342 342 339 338 340 340 338 338 336 336 337 339 339 340 340 339 328 328 327 329 326 328 330 331 335 334 331 330 327 329 331 329 326 324 326 325 319 319 320 319 319 319 320 320 321 321 317
336 337 341 339 339 340 340 340 339 338 339 339 339 341 341 334 329 326 325 326 326 324 325 327 331 333 337 332 330 328 326 325 322 322 324 322 324 320 321 321 321 321 321 320 319 320 320 321 324
333 338 340 339 338 338 338 341 340 341 340 342 341 341 339 330 331 329 325 323 322 322 323 325 328 334 336 332 328 327 326 325 322 315 324 322 320 320 320 321 323 321 321 321 319 320 321 318 321
335 337 342 340 339 338 339 340 338 339 340 341 338 332 331 325 325 326 324 322 321 320 320 323 330 334 332 330 328 326 325 325 321 314 317 319 318 320 321 321 322 321 320 320 318 320 320 319 318
335 335 337 339 337 336 339 340 340 340 339 339 335 328 326 326 325 324 322 321 321 319 320 320 330 330 332 329 326 325 324 323 319 312 313 316 315 320 320 320 321 319 318 318 319 319 319 317 321
334 334 334 338 337 337 340 341 341 340 340 340 328 326 326 326 325 325 323 321 319 318 319 316 324 327 326 326 325 325 324 321 320 318 313 314 311 319 320 319 317 317 318 319 320 319 319 319 320
334 334 336 338 338 338 339 341 340 341 341 340 331 329 327 326 325 325 324 319 314 315 317 315 314 328 327 326 326 324 322 321 321 320 315 314 312 319 318 318 317 319 318 319 320 319 319 319 320
334 336 337 338 340 340 341 341 341 340 340 337 330 327 327 326 326 327 326 319 313 312 313 316 312 320 326 326 322 322 322 321 321 320 319 313 312 318 318 318 319 319 319 318 318 313 311 319 319
337 336 336 339 341 341 341 342 342 340 336 331 329 329 329 328 328 328 325 319 314 312 312 315 314 312 317 320 320 322 322 321 320 320 319 312 313 318 318 317 317 318 317 317 315 310 312 318 319
336 334 335 338 341 341 342 342 342 341 338 331 331 330 328 328 328 329 323 321 319 312 311 310 312 314 321 320 318 321 320 320 320 321 320 312 312 315 314 314 315 314 316 314 311 309 312 314 318
338 337 336 334 338 340 340 342 343 342 341 336 331 329 328 329 329 330 327 325 323 318 311 309 310 316 319 320 321 321 320 320 321 321 319 314 311 311 310 313 311 311 315 313 309 309 311 315 315
333 339 341 339 338 339 335 338 343 342 342 340 333 330 330 330 330 332 330 329 324 323 316 310 310 316 320 322 322 321 321 321 322 321 320 318 312 309 311 311 311 315 313 311 309 310 311 312 311
336 339 337 341 338 337 337 336 342 343 342 342 338 332 332 331 332 332 331 331 327 325 324 311 310 315 319 321 321 321 321 321 322 320 320 320 316 312 310 312 312 314 313 309 309 310 310 310 311
336 338 338 338 338 335 336 337 342 342 342 342 339 336 333 332 333 333 332 332 330 326 327 321 310 311 316 320 321 321 322 321 321 320 321 319 319 317 315 310 312 312 313 309 308 310 311 310 311
335 336 334 335 336 332 335 340 341 341 341 342 340 339 337 333 333 333 333 332 331 328 329 328 313 310 311 314 315 320 321 322 321 321 320 318 319 318 318 317 310 311 313 311 312 310 311 311 312
331 331 336 336 337 336 336 336 344 341 340 340 340 341 340 337 335 334 333 333 332 329 328 330 321 311 310 313 317 322 322 322 322 321 320 320 320 319 318 318 313 312 312 314 313 310 311 312 311
333 332 333 337 335 338 335 335 341 342 342 339 339 340 340 340 339 336 335 334 334 332 332 331 326 314 311 310 314 322 323 322 322 322 320 320 321 319 318 318 314 313 312 314 314 313 312 312 312
333 332 335 337 336 335 338 338 341 340 340 340 340 338 340 341 341 337 337 336 335 334 333 331 328 320 313 311 311 315 319 321 321 319 321 319 320 319 319 318 316 312 315 314 314 313 313 313 311
334 337 332 334 335 340 336 337 341 338 336 336 338 339 339 339 339 338 338 336 335 335 334 333 329 324 317 313 312 312 312 315 318 320 321 319 319 320 319 318 317 313 315 314 314 314 313 313 313
330 329 331 332 336 342 336 340 336 336 335 336 336 336 339 339 339 338 339 336 336 335 335 332 327 326 321 317 314 314 313 318 320 322 322 321 319 319 319 318 317 315 314 315 315 314 313 313 313
332 330 331 337 337 334 337 338 335 333 334 334 334 334 338 339 339 339 340 339 336 336 335 329 327 327 323 319 317 316 317 315 317 319 321 318 319 319 319 318 316 317 315 315 314 314 314 313 313
333 334 331 332 331 330 332 334 334 334 334 334 334 334 333 335 339 339 340 339 336 336 334 332 328 327 324 321 320 319 319 318 318 318 319 319 319 319 318 318 317 317 316 315 315 314 314 314 313
331 332 332 334 336 335 335 334 335 334 336 334 331 334 335 336 336 337 337 338 336 336 335 334 331 328 324 322 322 321 321 320 320 319 320 320 320 320 319 319 318 317 317 317 316 315 315 315 314
333 335 335 333 332 336 338 332 330 333 332 334 332 334 336 335 336 336 333 336 336 335 334 333 331 329 325 322 323 323 322 321 321 321 321 321 320 321 321 318 319 319 318 317 317 317 316 316 316
332 333 332 334 337 333 332 333 332 331 333 332 333 335 335 335 337 337 333 334 336 334 334 332 332 329 325 323 324 323 322 322 321 321 322 322 322 321 321 318 318 318 318 317 317 316 316 317 317
Wind_Speed
14 16 10 3 4 5 3 3 6 5 7 19 18 17 11 11 2 4 13 13 7 5 10 13 10 9 8 7 7 7 8 8 7 7 8 8 9 10 11 12 11 11 10 11 12 11 9 10 13
16 14 11 5 5 3 3 4 15 14 23 27 28 22 20 13 17 19 16 10 6 7 8 11 12 11 8 7 7 8 8 8 8 8 8 8 9 10 12 13 14 15 15 15 11 11 12 12 12
18 4 9 4 1 2 5 7 13 16 12 10 6 11 7 10 10 10 11 6 5 6 7 9 10 10 9 6 7 7 8 9 9 8 8 10 10 10 11 14 14 14 15 14 14 10 10 10 11
20 15 9 4 5 7 7 13 24 21 17 13 13 8 19 13 12 13 10 10 10 12 10 7 7 9 7 6 8 11 11 9 7 6 7 7 7 9 13 16 17 17 14 11 11 11 10 10 9
16 9 5 4 5 8 12 20 22 10 12 17 20 11 14 15 13 18 17 14 11 11 9 6 7 7 7 6 9 12 11 7 4 3 3 5 8 11 14 17 21 21 19 17 13 10 9 10 10
12 11 3 3 4 9 3 14 20 21 21 20 21 16 8 14 18 19 18 13 12 8 9 6 8 8 7 7 9 11 12 8 5 2 2 3 4 10 14 15 19 18 18 17 17 16 14 9 7
9 4 6 4 2 2 4 2 9 13 9 5 17 6 14 21 20 21 16 10 6 7 8 8 8 5 5 7 9 11 11 11 8 4 3 6 5 9 12 11 14 14 14 16 13 13 12 12 10
5 5 4 3 3 4 4 2 13 9 4 17 13 4 9 19 16 12 8 8 7 4 6 5 2 4 4 4 9 8 11 14 14 8 3 3 3 4 6 8 8 10 11 12 12 12 11 9 6
3 4 4 6 7 5 11 6 4 13 21 6 5 21 25 17 12 6 4 5 7 3 2 4 4 7 6 5 7 7 10 14 16 10 3 6 3 1 1 2 6 8 11 14 11 10 13 12 5
5 3 8 8 11 8 13 24 18 10 11 7 16 23 20 13 6 4 5 6 7 6 6 3 5 8 6 5 5 6 9 15 13 12 3 5 4 1 5 5 7 11 11 8 6 8 12 9 5
7 6 7 8 18 18 20 19 19 22 6 24 28 24 18 12 5 2 2 3 5 5 5 4 10 9 10 9 5 6 10 12 11 12 8 7 6 1 4 7 11 10 5 7 10 13 10 4 3
5 5 12 14 14 19 18 22 10 15 13 24 25 20 13 7 5 0 2 2 4 3 5 5 5 13 8 7 5 5 6 7 10 13 12 10 8 2 5 10 11 3 8 11 11 13 11 6 3
5 6 16 25 25 21 20 17 12 11 22 25 23 17 12 9 8 6 1 2 4 3 3 5 4 7 11 9 5 2 1 4 8 10 14 12 9 4 7 9 4 9 9 12 16 17 11 7 5
1 9 7 19 25 22 16 13 15 18 25 25 22 17 14 14 13 8 4 1 3 4 3 4 4 4 9 8 4 5 2 3 6 10 16 13 10 4 8 9 6 9 11 15 16 18 12 8 8
7 5 5 16 18 7 24 2 5 26 23 25 21 19 19 20 16 9 4 3 4 5 4 3 2 5 8 3 5 8 2 2 5 10 16 13 9 6 9 10 8 11 12 16 18 12 9 10 11
5 6 3 4 12 14 11 6 13 28 26 25 26 27 27 25 20 15 7 4 3 5 4 3 0 6 10 7 8 5 2 2 5 8 15 15 11 8 9 9 10 11 13 16 20 14 9 8 10
6 1 1 7 8 7 7 3 18 32 29 25 27 31 29 27 23 18 12 6 2 3 5 3 2 10 10 8 6 5 2 3 4 9 14 16 15 12 11 11 10 11 15 18 19 14 12 12 11
5 4 3 5 4 8 7 8 18 29 27 25 29 33 31 32 28 21 15 10 4 1 4 5 3 6 7 4 7 8 4 3 4 8 11 15 14 15 15 13 13 13 16 20 17 14 13 12 12
7 2 4 8 6 3 6 8 16 27 25 21 28 33 33 35 28 23 18 14 9 5 0 5 3 3 6 8 9 7 6 2 6 7 8 14 12 15 18 18 14 15 18 20 19 16 15 13 11
6 6 7 7 6 6 6 8 13 23 29 32 30 32 34 33 29 27 23 20 14 7 3 1 2 1 4 6 10 9 10 6 5 5 9 10 11 14 17 20 18 15 15 16 22 19 18 18 15
6 8 2 4 3 4 2 5 4 1 11 18 25 38 36 36 35 33 29 26 18 12 5 3 2 1 2 5 9 10 10 9 6 4 9 8 10 12 15 19 19 14 12 14 18 21 19 17 13
2 2 6 4 2 2 3 2 4 6 9 15 23 29 32 35 38 39 33 30 23 13 8 7 4 2 2 4 6 10 11 10 9 6 6 8 8 8 12 17 19 12 12 12 13 18 19 16 15
5 5 3 4 5 3 5 4 5 2 12 14 17 26 34 33 38 42 37 32 22 16 11 8 7 3 2 2 6 8 11 10 8 4 6 6 5 6 11 16 17 11 10 11 12 12 15 18 15
6 2 9 5 3 3 3 4 4 5 9 5 19 30 36 35 36 41 37 32 24 17 16 13 10 6 2 1 3 4 5 7 10 8 5 7 4 6 10 15 16 11 8 13 12 11 11 13 15
6 7 4 5 5 4 5 1 7 5 11 19 19 12 36 34 39 41 38 37 30 25 19 15 13 9 4 3 1 1 3 5 8 8 6 8 12 9 10 10 15 13 8 8 12 14 10 10 12
6 6 4 2 3 3 5 3 4 6 11 10 9 9 18 34 38 42 40 39 35 26 20 15 15 11 6 4 5 4 4 6 8 6 8 9 9 12 12 13 13 13 12 7 9 12 13 10 11
3 4 3 5 4 2 3 5 1 4 7 9 10 22 14 11 23 35 40 40 38 27 23 19 16 12 9 5 6 5 4 5 7 5 6 6 7 9 12 11 12 12 11 9 9 12 13 14 11
6 3 3 4 2 4 5 4 4 5 6 4 18 16 21 10 14 18 20 31 35 31 25 22 18 13 7 6 6 6 6 6 9 10 8 10 9 10 10 10 12 11 12 12 12 13 13 13 13
1 2 5 4 5 4 3 6 6 5 8 4 11 16 14 8 14 25 19 30 32 36 33 23 20 13 9 6 7 8 7 9 9 12 11 11 12 12 14 13 13 13 14 13 16 17 17 18 18
4 6 6 5 4 2 4 6 6 5 8 12 7 15 12 5 17 22 22 39 30 39 36 25 19 12 7 6 10 10 10 9 10 13 13 13 15 15 15 15 13 13 13 14 16 17 18 19 20
Wind_Direction
62 35 21 56 76 57 331 97 140 112 57 72 85 83 85 62 91 158 137 149 112 51 22 11 15 4 353 337 335 337 335 335 336 336 340 342 346 349 345 341 338 336 340 337 327 319 312 308 308
31 14 23 26 61 96 261 144 90 106 121 99 85 79 64 72 85 132 145 131 67 10 16 39 40 28 11 351 344 341 334 329 323 325 330 337 342 344 341 337 335 332 328 326 336 324 313 303 296
75 317 38 65 88 299 125 111 117 109 103 105 86 59 61 89 107 149 123 89 360 53 53 46 37 35 30 25 16 2 346 331 325 330 338 342 346 353 352 345 337 328 321 317 319 326 322 323 311
93 43 59 68 355 294 128 120 111 109 84 85 102 61 84 96 109 118 100 93 106 82 71 55 45 31 30 39 16 1 350 329 324 334 341 351 4 3 6 7 360 355 347 323 317 325 326 330 335
84 56 36 15 338 14 83 115 116 104 95 89 98 113 105 109 102 105 105 99 83 84 68 45 36 30 25 44 12 360 352 330 326 356 22 16 1 358 11 15 12 15 25 33 26 7 347 327 319
80 100 51 310 355 1 51 120 95 88 100 107 105 118 119 121 118 118 106 98 88 90 66 68 32 31 35 26 22 12 11 9 9 19 14 333 356 0 10 20 11 13 26 36 35 27 23 17 338
117 107 173 171 239 290 256 108 88 104 103 70 130 103 105 110 113 113 108 107 107 58 45 63 64 38 21 21 33 30 26 20 4 336 354 7 26 9 4 18 11 12 18 18 22 18 4 6 15
87 76 127 205 177 251 239 199 130 112 102 127 130 123 119 135 133 127 109 79 70 57 348 5 87 109 52 52 51 36 5 6 2 359 266 314 13 27 34 33 357 3 7 1 355 360 352 351 332
113 73 150 183 152 229 176 147 138 122 127 138 86 112 132 136 145 137 84 23 10 351 350 322 52 146 109 78 65 35 12 357 355 8 249 257 294 251 311 37 341 342 337 328 336 338 339 358 3
103 111 211 185 168 181 179 125 130 127 124 132 104 128 133 145 156 102 33 14 350 349 351 21 129 115 155 120 79 46 2 343 356 10 355 356 352 222 291 284 301 328 332 340 347 330 322 346 20
159 175 174 198 172 167 157 141 143 145 175 157 142 136 138 135 120 37 33 341 349 332 338 63 179 138 128 120 92 2 340 345 3 13 11 18 12 197 290 335 348 347 0 350 357 352 350 351 345
49 32 162 178 198 170 148 149 156 171 180 162 150 152 153 161 154 344 336 353 351 319 10 38 150 183 174 199 230 284 330 6 355 0 10 22 29 90 351 8 9 20 353 354 347 334 327 314 304
78 20 121 146 149 153 141 145 139 145 165 157 152 150 152 173 195 210 273 44 25 351 24 57 87 187 200 226 228 184 27 341 345 354 360 9 19 359 3 19 1 343 351 345 340 338 329 299 273
166 104 142 141 139 140 135 147 130 150 149 155 158 168 183 191 192 197 203 86 44 47 20 52 51 128 178 187 157 174 182 319 330 0 357 355 13 348 355 6 343 328 349 349 349 344 337 286 276
27 91 24 149 150 137 135 217 192 163 164 168 175 180 182 190 203 221 215 164 73 54 20 359 52 119 167 140 110 185 238 318 347 358 350 353 11 337 340 0 349 335 346 351 350 349 323 284 269
31 63 49 217 163 167 150 242 183 175 180 184 182 177 185 197 208 211 212 201 124 67 57 2 217 146 136 132 95 85 90 354 4 353 356 5 10 359 349 356 345 349 346 352 356 352 336 317 314
346 16 152 311 206 143 200 246 184 182 188 198 190 186 193 196 207 212 222 211 139 67 39 34 141 161 146 161 180 166 163 276 326 342 354 9 13 18 22 7 5 6 356 360 6 360 344 341 351
207 208 225 231 273 184 201 240 181 191 198 205 199 196 200 200 211 215 224 223 230 194 37 27 98 163 167 163 178 173 194 299 290 323 347 4 15 24 23 17 10 1 7 11 19 15 14 8 10
183 321 158 263 214 107 267 251 191 193 205 216 208 199 204 208 211 214 224 227 230 226 87 23 35 180 191 187 191 189 187 269 260 304 346 356 12 17 18 14 11 10 11 22 26 28 25 24 36
171 174 218 250 93 137 215 253 191 195 205 212 210 207 205 205 204 208 217 223 231 238 227 1 356 219 194 186 183 172 192 226 257 311 334 348 1 3 9 9 2 9 15 28 30 34 35 37 31
249 131 210 186 97 32 299 35 77 336 303 260 255 222 213 210 208 208 212 222 224 225 226 252 311 283 228 184 181 186 186 207 240 284 321 328 327 345 357 2 358 7 18 26 31 30 32 36 42
55 164 168 165 97 7 353 316 19 337 292 289 272 235 220 219 217 214 213 221 221 224 227 245 272 294 251 200 202 199 208 206 225 256 269 294 301 322 348 355 354 2 22 32 32 33 36 30 32
207 134 122 83 85 96 2 77 277 156 260 250 261 250 234 228 219 213 216 221 219 223 233 239 263 280 297 246 211 216 232 236 240 252 252 280 319 304 341 351 350 355 11 16 18 21 25 23 21
122 144 36 52 55 30 244 157 234 183 230 297 263 248 236 228 218 215 216 217 214 221 231 241 258 264 298 278 235 226 234 238 227 231 247 296 292 288 333 344 348 352 3 4 3 6 18 16 14
87 46 356 1 1 232 228 53 249 215 235 234 237 274 233 226 218 214 211 211 213 213 222 235 241 253 278 321 320 237 240 221 215 250 250 282 281 290 314 330 340 352 346 352 357 3 1 5 355
78 116 154 353 314 289 272 284 272 219 189 220 6 333 233 217 221 215 213 214 213 211 217 236 238 239 256 304 331 351 324 274 282 287 292 285 273 288 301 313 320 329 345 329 326 339 346 343 339
16 43 251 110 160 13 232 281 235 302 324 327 17 29 35 218 208 213 216 217 213 206 223 232 230 235 248 286 328 331 329 293 321 305 312 290 302 324 310 301 312 310 323 334 320 318 329 335 333
120 170 14 17 343 323 287 295 251 262 266 309 51 37 47 57 214 206 216 229 216 224 229 228 221 238 251 279 311 323 337 328 332 316 320 316 311 311 313 298 292 307 305 299 303 307 311 312 317
64 52 44 112 139 190 309 283 238 193 214 232 81 44 57 89 179 185 190 232 234 230 235 227 222 231 246 274 284 292 334 346 333 330 323 318 314 312 316 307 299 297 302 302 300 296 296 294 295
159 161 150 128 227 189 150 276 343 8 77 118 98 88 69 72 163 177 225 229 238 231 238 230 228 238 255 303 279 293 318 322 316 319 326 323 323 318 316 307 299 298 297 295 294 293 295 295 296